EDT,Max TemperatureF,Mean TemperatureF,Min TemperatureF,Max Dew PointF,MeanDew PointF,Min DewpointF,Max Humidity, Mean Humidity, Min Humidity, Max Sea Level PressureIn, Mean Sea Level PressureIn, Min Sea Level PressureIn, Max VisibilityMiles, Mean VisibilityMiles, Min VisibilityMiles, Max Wind SpeedMPH, Mean Wind SpeedMPH, Max Gust SpeedMPH,PrecipitationIn, CloudCover, Events, WindDirDegrees
2011-10-1,64,60,53,63,61,52,100,96,88,29.80,29.68,29.62,10,4,1,13,4,21,0.03,8,Rain,27
2011-10-2,57,54,51,57,54,51,100,97,93,29.91,29.87,29.82,10,3,1,12,8,20,1.02,8,Rain,5
2011-10-3,66,60,54,56,55,51,100,88,63,30.08,30.01,29.91,10,9,2,7,4,,0.03,7,Rain,61
2011-10-4,57,55,53,56,55,53,100,96,88,30.05,29.96,29.88,10,7,1,15,6,28,0.70,8,Rain,358
2011-10-5,63,54,45,54,43,28,96,70,44,30.18,29.97,29.87,10,10,10,21,8,34,0.01,4,Rain,319
2011-10-6,57,46,35,33,28,22,85,53,28,30.35,30.24,30.18,10,10,10,14,5,23,0.00,0,,310
2011-10-7,61,46,32,42,36,31,100,69,32,30.44,30.39,30.35,10,10,10,5,1,,0.00,0,,317
2011-10-8,80,62,45,56,50,41,90,62,40,30.40,30.33,30.29,10,10,10,8,2,,0.00,0,,283
2011-10-9,82,72,62,52,48,43,70,47,24,30.30,30.24,30.18,10,10,10,13,6,24,0.00,0,,296
2011-10-10,81,66,53,57,53,49,89,62,42,30.18,30.12,30.06,10,10,10,14,5,22,0.00,0,,304
2011-10-11,66,56,45,48,45,41,97,77,43,30.27,30.22,30.16,10,10,8,8,3,,0.00,0,,349
2011-10-12,57,50,44,52,48,43,97,85,64,30.27,30.21,30.12,10,10,9,7,4,,0.00,5,Rain,71
2011-10-13,59,56,53,57,55,53,100,96,93,30.10,29.91,29.80,10,5,1,9,5,18,0.39,8,Rain,23
2011-10-14,64,60,57,65,60,55,100,99,94,29.79,29.56,29.26,10,3,0,8,5,,0.88,8,Fog-Rain,95
2011-10-15,63,58,52,61,49,40,100,76,46,29.57,29.41,29.25,10,10,10,10,6,23,0.00,4,,190
2011-10-16,62,56,51,43,38,35,71,55,38,29.71,29.66,29.60,10,10,10,9,6,26,0.00,4,,238
2011-10-17,61,56,51,46,39,30,83,58,32,29.68,29.61,29.53,10,10,10,10,3,22,0.00,4,Rain,272
2011-10-18,61,52,43,43,40,37,93,67,44,29.95,29.82,29.68,10,10,10,9,1,,0.00,0,,305
2011-10-19,55,48,42,51,47,41,97,91,77,30.02,29.91,29.68,10,7,3,13,6,22,0.47,6,Rain,13
2011-10-20,64,58,51,61,53,47,100,90,64,29.68,29.54,29.44,10,7,1,12,8,20,0.38,6,Rain,51
2011-10-21,61,52,45,46,42,40,90,68,51,29.92,29.79,29.66,10,10,10,8,2,,0.00,3,,233
2011-10-22,59,50,44,43,42,40,90,72,51,30.04,29.98,29.92,10,10,10,7,3,,0.00,7,,290
2011-10-23,55,45,36,43,38,35,97,75,55,30.13,30.09,30.04,10,10,10,4,1,,0.00,3,,285
2011-10-24,57,44,34,47,40,33,97,82,64,30.14,30.05,29.90,10,10,7,7,4,,0.00,2,,192
2011-10-25,59,49,43,47,38,30,100,68,45,29.93,29.87,29.81,10,9,1,18,6,26,0.00,2,,301
2011-10-26,48,44,39,40,35,31,85,71,61,29.95,29.86,29.75,10,10,10,9,3,,0.00,6,,293
2011-10-27,44,38,33,41,36,32,100,94,85,29.87,29.77,29.70,10,7,1,9,4,,0.66,8,Rain-Snow,357
2011-10-28,46,38,30,32,27,23,96,72,45,30.24,30.08,29.88,10,10,10,15,4,22,0.00,1,,302
2011-10-29,39,33,27,32,29,24,96,85,55,30.27,30.09,29.87,10,4,0,14,6,22,0.56,6,Fog-Snow,10
2011-10-30,42,38,30,28,26,26,82,67,55,30.24,30.14,30.01,10,10,10,20,12,31,0.00,0,,286
2011-10-31,51,38,27,34,28,24,92,67,41,30.40,30.35,30.27,10,10,10,7,2,,0.00,0,,304